Total_Precipitation_Accumulation
0.09 0.12 0.09 0.15 0.08 0.06 0.06 0.07 0.06 0.05 0.05 0.06 0.05 0.04 0.05 0.05 0.04 0.05 0.05 0.05 0.03 0.04 0.05 0.01 0.03 0.02 0.01 0.01 0.00 0.00 0.00 0.00 0.00 0.00 0.00 0.00 0.00 0.00 0.00 0.00 0.00 0.00 0.00 0.00 0.00 0.00 0.00 0.00 0.00 0.00 0.00 0.00 0.00 0.00 0.00 0.00 0.00 0.00 0.00 0.00 0.00 0.00 0.00 0.00 0.00 0.00 0.00 0.00 0.00 0.00 0.00 0.00 0.00 0.00 0.00 0.00 0.00 0.00 0.01 0.00 0.01 0.01 0.12 0.10 0.13 0.20 0.10 0.12
0.09 0.08 0.14 0.07 0.07 0.09 0.08 0.06 0.08 0.06 0.04 0.03 0.04 0.04 0.05 0.04 0.05 0.03 0.04 0.03 0.04 0.03 0.02 0.04 0.01 0.01 0.01 0.00 0.00 0.00 0.00 0.00 0.00 0.00 0.00 0.00 0.00 0.00 0.00 0.00 0.00 0.00 0.00 0.00 0.00 0.00 0.00 0.00 0.00 0.00 0.00 0.00 0.00 0.00 0.00 0.00 0.00 0.00 0.00 0.00 0.00 0.00 0.00 0.00 0.00 0.00 0.00 0.00 0.00 0.00 0.02 0.01 0.00 0.00 0.00 0.02 0.00 0.00 0.01 0.03 0.04 0.07 0.12 0.15 0.14 0.11 0.15 0.13
0.08 0.08 0.09 0.08 0.08 0.09 0.10 0.07 0.07 0.07 0.06 0.05 0.04 0.05 0.04 0.05 0.05 0.04 0.03 0.04 0.03 0.02 0.02 0.01 0.03 0.01 0.00 0.00 0.00 0.00 0.00 0.00 0.00 0.00 0.00 0.00 0.00 0.00 0.00 0.00 0.00 0.00 0.00 0.00 0.00 0.00 0.00 0.00 0.00 0.00 0.00 0.00 0.00 0.00 0.00 0.00 0.00 0.00 0.00 0.00 0.00 0.00 0.00 0.00 0.00 0.00 0.00 0.00 0.00 0.00 0.00 0.00 0.01 0.00 0.00 0.03 0.01 0.00 0.01 0.03 0.06 0.15 0.25 0.17 0.18 0.16 0.20 0.22
0.09 0.08 0.08 0.08 0.07 0.08 0.09 0.10 0.07 0.06 0.08 0.07 0.05 0.06 0.06 0.05 0.04 0.04 0.05 0.04 0.01 0.02 0.03 0.01 0.01 0.01 0.01 0.00 0.00 0.00 0.00 0.00 0.00 0.00 0.00 0.00 0.00 0.00 0.00 0.00 0.00 0.00 0.00 0.00 0.00 0.00 0.00 0.00 0.00 0.00 0.00 0.00 0.00 0.00 0.00 0.00 0.00 0.00 0.00 0.00 0.00 0.00 0.00 0.00 0.00 0.00 0.00 0.00 0.00 0.00 0.00 0.00 0.00 0.00 0.00 0.00 0.03 0.03 0.01 0.03 0.10 0.13 0.23 0.18 0.23 0.18 0.19 0.39
0.08 0.09 0.09 0.06 0.07 0.08 0.09 0.09 0.07 0.08 0.08 0.06 0.07 0.07 0.07 0.05 0.05 0.04 0.05 0.03 0.03 0.02 0.03 0.02 0.01 0.01 0.01 0.00 0.00 0.00 0.00 0.00 0.00 0.00 0.00 0.00 0.00 0.00 0.00 0.00 0.00 0.00 0.00 0.00 0.00 0.00 0.00 0.00 0.00 0.00 0.00 0.00 0.00 0.00 0.00 0.00 0.00 0.00 0.00 0.00 0.00 0.00 0.00 0.00 0.00 0.00 0.00 0.00 0.00 0.00 0.00 0.00 0.00 0.00 0.00 0.00 0.02 0.13 0.08 0.08 0.01 0.02 0.34 0.38 0.17 0.18 0.33 0.41
0.06 0.06 0.06 0.06 0.06 0.08 0.08 0.07 0.07 0.06 0.06 0.05 0.06 0.06 0.07 0.06 0.06 0.05 0.04 0.05 0.06 0.04 0.02 0.03 0.01 0.00 0.01 0.00 0.00 0.00 0.00 0.00 0.00 0.00 0.00 0.00 0.00 0.00 0.00 0.00 0.00 0.00 0.00 0.00 0.00 0.00 0.00 0.00 0.00 0.00 0.00 0.00 0.00 0.00 0.00 0.00 0.00 0.00 0.00 0.00 0.00 0.00 0.00 0.00 0.00 0.00 0.00 0.00 0.00 0.00 0.00 0.00 0.00 0.00 0.00 0.00 0.01 0.09 0.07 0.06 0.07 0.02 0.10 0.31 0.24 0.41 0.52 0.89
0.06 0.07 0.06 0.07 0.10 0.08 0.08 0.11 0.06 0.07 0.07 0.05 0.05 0.06 0.06 0.10 0.06 0.05 0.05 0.05 0.05 0.05 0.02 0.02 0.02 0.00 0.00 0.00 0.00 0.00 0.00 0.00 0.00 0.00 0.00 0.00 0.00 0.00 0.00 0.00 0.00 0.00 0.00 0.00 0.00 0.00 0.00 0.00 0.00 0.00 0.00 0.00 0.00 0.00 0.00 0.00 0.00 0.00 0.00 0.00 0.00 0.00 0.00 0.00 0.00 0.00 0.00 0.00 0.00 0.00 0.00 0.00 0.00 0.00 0.00 0.00 0.00 0.00 0.03 0.07 0.02 0.10 0.11 0.18 0.17 0.35 0.46 0.66
0.07 0.06 0.11 0.08 0.07 0.06 0.06 0.06 0.07 0.05 0.05 0.06 0.06 0.06 0.05 0.06 0.08 0.05 0.04 0.05 0.05 0.03 0.04 0.03 0.01 0.01 0.01 0.00 0.00 0.00 0.00 0.00 0.00 0.00 0.00 0.00 0.00 0.00 0.00 0.00 0.00 0.00 0.00 0.00 0.00 0.00 0.00 0.00 0.00 0.00 0.00 0.00 0.00 0.00 0.00 0.00 0.00 0.00 0.00 0.00 0.00 0.00 0.00 0.00 0.00 0.00 0.00 0.00 0.00 0.00 0.00 0.00 0.00 0.00 0.00 0.02 0.01 0.01 0.03 0.03 0.02 0.37 0.41 0.45 0.36 0.46 0.77 1.11
0.06 0.08 0.08 0.11 0.08 0.05 0.05 0.05 0.05 0.05 0.06 0.05 0.05 0.05 0.08 0.07 0.07 0.07 0.05 0.05 0.04 0.04 0.04 0.03 0.01 0.01 0.01 0.01 0.01 0.01 0.00 0.00 0.00 0.00 0.00 0.00 0.00 0.00 0.00 0.00 0.00 0.00 0.00 0.00 0.00 0.00 0.00 0.00 0.00 0.00 0.00 0.00 0.00 0.00 0.00 0.00 0.00 0.00 0.00 0.00 0.00 0.00 0.00 0.00 0.00 0.00 0.00 0.00 0.00 0.00 0.00 0.00 0.00 0.00 0.02 0.18 0.08 0.04 0.06 0.07 0.31 0.61 0.41 0.72 0.67 0.50 0.58 1.17
0.07 0.08 0.09 0.10 0.08 0.05 0.03 0.05 0.04 0.06 0.06 0.05 0.05 0.05 0.05 0.07 0.06 0.08 0.05 0.04 0.05 0.06 0.03 0.02 0.01 0.01 0.00 0.02 0.01 0.00 0.00 0.00 0.00 0.00 0.00 0.00 0.00 0.00 0.00 0.00 0.00 0.00 0.00 0.00 0.00 0.00 0.00 0.00 0.00 0.00 0.00 0.00 0.00 0.00 0.00 0.00 0.00 0.00 0.00 0.00 0.00 0.00 0.00 0.00 0.00 0.00 0.00 0.00 0.00 0.00 0.00 0.00 0.00 0.00 0.12 0.54 0.49 0.09 0.09 0.24 0.44 0.38 0.30 0.65 0.50 0.70 0.96 1.05
0.10 0.06 0.08 0.11 0.08 0.06 0.06 0.05 0.04 0.09 0.07 0.07 0.07 0.07 0.05 0.05 0.07 0.06 0.06 0.03 0.06 0.03 0.02 0.02 0.03 0.02 0.05 0.01 0.02 0.00 0.00 0.00 0.00 0.00 0.00 0.00 0.00 0.00 0.00 0.00 0.00 0.00 0.00 0.00 0.00 0.00 0.00 0.00 0.00 0.00 0.00 0.00 0.00 0.00 0.00 0.00 0.00 0.00 0.00 0.00 0.00 0.00 0.00 0.00 0.00 0.00 0.00 0.00 0.00 0.00 0.00 0.00 0.00 0.00 0.05 0.14 0.54 0.70 0.50 0.56 1.10 0.26 0.29 0.71 1.20 1.44 1.09 1.44
0.08 0.12 0.12 0.07 0.11 0.16 0.06 0.09 0.10 0.08 0.10 0.10 0.07 0.06 0.07 0.06 0.05 0.02 0.04 0.07 0.05 0.04 0.02 0.01 0.03 0.10 0.02 0.04 0.03 0.00 0.00 0.00 0.00 0.00 0.00 0.00 0.00 0.00 0.00 0.00 0.00 0.00 0.00 0.00 0.00 0.00 0.00 0.00 0.00 0.00 0.00 0.00 0.00 0.00 0.00 0.00 0.00 0.00 0.00 0.00 0.00 0.00 0.00 0.00 0.00 0.00 0.00 0.00 0.00 0.00 0.00 0.00 0.01 0.14 0.06 0.11 0.25 0.82 0.85 0.63 0.37 0.62 0.58 0.75 0.93 0.87 0.85 1.03
0.09 0.10 0.08 0.11 0.12 0.16 0.08 0.11 0.09 0.11 0.07 0.08 0.07 0.07 0.06 0.05 0.08 0.08 0.04 0.05 0.02 0.04 0.03 0.04 0.02 0.09 0.15 0.06 0.00 0.00 0.00 0.00 0.00 0.00 0.00 0.00 0.00 0.00 0.00 0.00 0.00 0.00 0.00 0.00 0.00 0.00 0.00 0.00 0.00 0.00 0.00 0.00 0.00 0.00 0.00 0.00 0.00 0.00 0.00 0.00 0.00 0.00 0.00 0.00 0.00 0.00 0.00 0.00 0.00 0.00 0.02 0.02 0.04 0.06 0.23 0.30 0.34 0.78 0.89 0.55 0.43 0.81 1.30 2.29 1.96 1.26 1.29 1.44
0.10 0.08 0.09 0.08 0.07 0.08 0.13 0.11 0.07 0.12 0.09 0.05 0.08 0.14 0.07 0.06 0.06 0.04 0.08 0.06 0.07 0.05 0.06 0.04 0.08 0.04 0.21 0.01 0.00 0.00 0.00 0.00 0.00 0.00 0.00 0.00 0.00 0.00 0.00 0.00 0.00 0.00 0.00 0.00 0.00 0.00 0.00 0.00 0.00 0.00 0.00 0.00 0.00 0.00 0.00 0.00 0.00 0.00 0.00 0.00 0.00 0.00 0.00 0.00 0.00 0.00 0.00 0.00 0.00 0.00 0.04 0.09 0.16 0.17 0.33 0.35 0.51 0.37 0.74 1.38 1.69 1.60 2.37 1.32 1.25 1.47 1.54 1.69
0.10 0.11 0.08 0.08 0.14 0.13 0.12 0.12 0.13 0.11 0.09 0.08 0.06 0.05 0.07 0.06 0.06 0.04 0.05 0.06 0.05 0.05 0.04 0.11 0.08 0.13 0.15 0.00 0.00 0.00 0.00 0.00 0.00 0.00 0.00 0.00 0.00 0.00 0.00 0.00 0.00 0.00 0.00 0.00 0.00 0.00 0.00 0.00 0.00 0.00 0.00 0.00 0.00 0.00 0.00 0.00 0.00 0.00 0.00 0.00 0.00 0.00 0.00 0.00 0.00 0.00 0.00 0.00 0.00 0.00 0.02 0.20 0.09 0.34 0.32 0.25 0.29 0.59 0.46 0.79 1.02 1.74 2.03 1.73 1.39 1.46 1.53 2.40
0.09 0.10 0.09 0.10 0.14 0.09 0.06 0.12 0.10 0.10 0.08 0.08 0.06 0.05 0.07 0.13 0.13 0.10 0.13 0.15 0.05 0.10 0.06 0.08 0.05 0.04 0.03 0.01 0.00 0.00 0.00 0.00 0.00 0.00 0.00 0.00 0.00 0.00 0.00 0.00 0.00 0.00 0.00 0.00 0.00 0.00 0.00 0.00 0.00 0.00 0.00 0.00 0.00 0.00 0.00 0.00 0.00 0.00 0.00 0.00 0.00 0.00 0.00 0.00 0.00 0.00 0.00 0.00 0.00 0.00 0.04 0.03 0.26 0.25 0.24 0.25 0.35 0.21 0.30 0.87 1.06 1.88 1.60 1.83 1.49 0.93 0.93 0.62
0.09 0.08 0.10 0.11 0.10 0.13 0.09 0.09 0.09 0.16 0.11 0.06 0.04 0.03 0.06 0.05 0.06 0.21 0.07 0.15 0.06 0.04 0.07 0.05 0.02 0.07 0.14 0.00 0.00 0.00 0.00 0.00 0.00 0.00 0.00 0.00 0.00 0.00 0.00 0.00 0.00 0.00 0.00 0.00 0.00 0.00 0.00 0.00 0.00 0.00 0.00 0.00 0.00 0.00 0.00 0.00 0.00 0.00 0.00 0.00 0.00 0.00 0.00 0.00 0.00 0.00 0.00 0.00 0.00 0.00 0.00 0.02 0.05 0.12 0.13 0.28 0.21 0.25 0.76 1.53 1.66 1.75 1.22 0.97 1.06 0.72 0.66 0.47
0.09 0.08 0.11 0.10 0.08 0.09 0.06 0.05 0.08 0.09 0.11 0.08 0.04 0.03 0.04 0.05 0.05 0.07 0.09 0.11 0.16 0.08 0.08 0.05 0.02 0.06 0.00 0.00 0.00 0.00 0.00 0.00 0.00 0.00 0.00 0.00 0.00 0.00 0.00 0.00 0.00 0.00 0.00 0.00 0.00 0.00 0.00 0.00 0.00 0.00 0.00 0.00 0.00 0.00 0.00 0.00 0.00 0.00 0.00 0.00 0.00 0.00 0.00 0.00 0.00 0.00 0.00 0.00 0.00 0.00 0.02 0.01 0.05 0.08 0.20 0.34 0.75 1.39 0.65 1.31 0.36 0.25 0.25 0.79 0.76 0.82 0.84 0.81
0.10 0.10 0.12 0.09 0.08 0.07 0.08 0.07 0.06 0.06 0.12 0.12 0.06 0.05 0.02 0.05 0.11 0.07 0.05 0.16 0.20 0.33 0.17 0.20 0.12 0.03 0.03 0.00 0.00 0.00 0.00 0.00 0.00 0.00 0.00 0.00 0.00 0.00 0.00 0.00 0.00 0.00 0.00 0.00 0.00 0.00 0.00 0.00 0.00 0.00 0.00 0.00 0.00 0.00 0.00 0.00 0.00 0.00 0.01 0.00 0.00 0.00 0.00 0.00 0.00 0.00 0.00 0.00 0.00 0.03 0.06 0.06 0.06 0.14 0.53 1.54 1.33 1.16 1.46 1.28 0.39 0.60 0.53 0.54 0.54 0.89 1.36 1.02
0.12 0.14 0.11 0.10 0.11 0.07 0.07 0.05 0.05 0.09 0.52 0.07 0.07 0.07 0.12 0.20 0.18 0.22 0.09 0.18 0.18 0.05 0.02 0.06 0.00 0.00 0.00 0.00 0.00 0.00 0.00 0.00 0.00 0.00 0.00 0.00 0.00 0.00 0.00 0.00 0.00 0.00 0.00 0.00 0.00 0.00 0.00 0.00 0.00 0.00 0.01 0.00 0.00 0.00 0.00 0.00 0.00 0.00 0.00 0.00 0.00 0.00 0.00 0.00 0.00 0.00 0.00 0.00 0.00 0.00 0.03 0.05 0.07 0.14 0.61 1.50 2.52 1.20 0.99 0.26 0.17 0.34 0.28 0.41 0.65 0.76 0.71 0.73
0.11 0.15 0.12 0.14 0.12 0.13 0.07 0.05 0.03 0.06 0.17 0.22 0.12 0.24 0.17 0.09 0.24 0.14 0.16 0.13 0.07 0.02 0.01 0.05 0.03 0.01 0.00 0.00 0.00 0.00 0.00 0.00 0.00 0.00 0.00 0.00 0.00 0.00 0.00 0.00 0.00 0.00 0.00 0.00 0.00 0.01 0.00 0.00 0.00 0.00 0.00 0.00 0.00 0.00 0.00 0.00 0.00 0.00 0.00 0.00 0.00 0.00 0.00 0.00 0.00 0.00 0.00 0.00 0.01 0.01 0.01 0.06 0.05 0.12 0.52 0.46 2.47 1.51 1.32 0.79 0.39 0.64 1.18 0.69 0.46 0.50 0.40 0.68
0.13 0.13 0.17 0.15 0.14 0.13 0.09 0.05 0.04 0.06 0.21 0.18 0.20 0.11 0.07 0.17 0.12 0.21 0.15 0.19 0.08 0.03 0.03 0.01 0.01 0.01 0.00 0.00 0.00 0.00 0.00 0.00 0.00 0.00 0.00 0.00 0.00 0.00 0.00 0.00 0.00 0.00 0.00 0.00 0.01 0.02 0.14 0.08 0.01 0.00 0.00 0.00 0.00 0.00 0.00 0.00 0.00 0.00 0.00 0.00 0.00 0.00 0.00 0.00 0.00 0.00 0.00 0.00 0.02 0.02 0.03 0.08 0.11 0.13 0.85 0.43 0.41 1.75 1.42 0.44 0.73 1.35 0.95 1.88 1.77 1.52 1.37 1.05
0.25 0.12 0.13 0.16 0.19 0.17 0.20 0.16 0.09 0.18 0.23 0.15 0.16 0.09 0.11 0.12 0.09 0.18 0.18 0.33 0.11 0.04 0.05 0.01 0.01 0.00 0.00 0.00 0.00 0.00 0.00 0.00 0.00 0.00 0.00 0.00 0.00 0.00 0.00 0.00 0.00 0.00 0.00 0.00 0.01 0.01 0.03 0.04 0.00 0.00 0.00 0.00 0.00 0.00 0.00 0.00 0.00 0.00 0.00 0.00 0.00 0.00 0.01 0.03 0.00 0.00 0.00 0.00 0.01 0.01 0.03 0.14 0.16 0.30 0.29 0.34 0.37 0.39 1.20 0.73 0.72 1.07 1.04 0.65 1.27 1.08 0.84 1.03
0.20 0.28 0.30 0.40 0.27 0.25 0.21 0.29 0.18 0.20 0.13 0.06 0.09 0.16 0.17 0.27 0.14 0.15 0.31 0.37 0.10 0.07 0.00 0.00 0.01 0.00 0.00 0.00 0.00 0.00 0.00 0.00 0.00 0.00 0.00 0.00 0.00 0.00 0.00 0.00 0.00 0.01 0.01 0.00 0.00 0.00 0.01 0.00 0.00 0.00 0.00 0.00 0.00 0.00 0.00 0.00 0.00 0.00 0.00 0.00 0.00 0.01 0.00 0.00 0.04 0.00 0.00 0.00 0.00 0.02 0.06 0.22 0.24 0.36 0.42 0.42 0.41 0.31 0.89 0.75 0.61 0.44 0.79 0.81 1.13 0.88 0.82 0.65
0.16 0.34 0.30 0.19 0.37 0.21 0.35 0.35 0.08 0.08 0.08 0.15 0.12 0.23 0.43 0.12 0.25 0.30 0.32 0.24 0.04 0.03 0.00 0.01 0.00 0.00 0.00 0.00 0.00 0.00 0.00 0.00 0.00 0.00 0.00 0.00 0.00 0.00 0.00 0.00 0.00 0.00 0.01 0.00 0.00 0.00 0.00 0.01 0.05 0.03 0.00 0.00 0.01 0.00 0.00 0.00 0.00 0.00 0.00 0.00 0.00 0.00 0.01 0.00 0.00 0.00 0.01 0.02 0.02 0.02 0.06 0.33 0.35 0.53 0.22 0.31 0.36 0.41 0.50 0.54 0.89 1.02 0.61 0.69 0.77 0.83 0.77 0.74
0.28 0.23 0.30 0.26 0.39 0.61 0.67 0.16 0.21 0.14 0.13 0.30 0.13 0.15 0.27 0.41 0.26 0.40 0.26 0.45 0.12 0.04 0.04 0.01 0.00 0.02 0.00 0.00 0.00 0.00 0.00 0.02 0.00 0.00 0.00 0.00 0.00 0.00 0.01 0.01 0.00 0.00 0.00 0.00 0.00 0.02 0.01 0.04 0.01 0.01 0.01 0.00 0.00 0.00 0.00 0.00 0.00 0.00 0.01 0.00 0.00 0.00 0.00 0.00 0.01 0.00 0.01 0.02 0.07 0.00 0.04 0.21 0.21 0.35 0.36 0.38 0.20 0.28 0.55 0.46 0.48 1.23 0.63 0.33 0.41 0.52 0.97 0.77
0.19 0.25 0.27 0.36 0.41 0.76 0.20 0.32 0.26 0.19 0.15 0.22 0.23 0.38 0.18 0.35 0.71 0.28 0.29 0.23 0.17 0.12 0.00 0.02 0.00 0.01 0.00 0.00 0.00 0.00 0.04 0.06 0.00 0.00 0.00 0.00 0.00 0.00 0.00 0.02 0.01 0.00 0.00 0.13 0.00 0.03 0.00 0.02 0.01 0.02 0.00 0.03 0.00 0.00 0.00 0.00 0.00 0.01 0.01 0.00 0.00 0.00 0.00 0.00 0.01 0.00 0.03 0.00 0.01 0.00 0.03 0.24 0.29 0.18 0.17 0.38 0.40 0.37 0.55 0.41 0.33 0.16 0.93 0.53 0.56 1.03 0.77 0.53
0.26 0.59 0.28 0.31 0.52 0.22 0.37 0.31 0.21 0.24 0.39 0.40 0.12 0.36 0.41 0.32 0.30 0.56 0.20 0.32 0.11 0.01 0.06 0.05 0.00 0.01 0.00 0.00 0.00 0.01 0.01 0.00 0.03 0.03 0.00 0.00 0.00 0.00 0.00 0.02 0.03 0.05 0.07 0.01 0.03 0.00 0.00 0.00 0.00 0.01 0.00 0.02 0.01 0.00 0.00 0.00 0.00 0.02 0.00 0.00 0.00 0.00 0.00 0.00 0.01 0.01 0.02 0.04 0.07 0.01 0.03 0.14 0.20 0.26 0.27 0.34 0.66 0.48 0.64 0.38 0.25 0.24 0.29 0.58 1.18 1.12 0.76 0.61
0.41 0.27 0.35 0.41 0.27 0.62 0.16 0.50 0.41 0.35 0.51 0.44 0.32 0.37 0.30 1.13 0.45 0.46 0.41 0.19 0.22 0.02 0.00 0.18 0.00 0.00 0.00 0.00 0.00 0.00 0.00 0.01 0.08 0.05 0.02 0.02 0.08 0.06 0.09 0.04 0.02 0.01 0.02 0.03 0.05 0.01 0.00 0.00 0.01 0.01 0.00 0.02 0.00 0.00 0.00 0.00 0.00 0.00 0.00 0.00 0.00 0.00 0.00 0.00 0.02 0.00 0.09 0.03 0.07 0.04 0.08 0.05 0.33 0.19 0.40 0.43 0.26 0.30 0.26 0.21 0.27 0.28 0.27 0.39 0.72 0.97 0.59 0.44
0.30 0.40 0.25 0.35 0.20 0.27 0.46 0.31 0.52 0.77 0.42 0.57 0.41 0.23 0.26 0.64 0.87 0.37 0.51 0.12 0.13 0.21 0.02 0.12 0.03 0.04 0.00 0.02 0.02 0.06 0.04 0.02 0.05 0.09 0.06 0.02 0.11 0.10 0.02 0.09 0.11 0.09 0.03 0.01 0.01 0.03 0.08 0.00 0.00 0.02 0.00 0.00 0.00 0.00 0.00 0.00 0.00 0.00 0.00 0.00 0.00 0.00 0.01 0.01 0.01 0.02 0.11 0.05 0.02 0.01 0.05 0.00 0.27 0.26 0.20 0.30 0.23 0.13 0.14 0.19 0.28 0.29 0.31 0.33 0.63 0.55 0.48 0.66
0.15 0.23 0.45 0.34 0.47 0.36 0.23 0.34 0.84 0.68 0.54 0.23 0.28 0.49 0.75 0.60 0.74 0.23 0.17 0.14 0.02 0.29 0.04 0.10 0.05 0.02 0.07 0.13 0.15 0.07 0.04 0.04 0.05 0.04 0.21 0.03 0.17 0.11 0.09 0.06 0.06 0.13 0.14 0.05 0.06 0.01 0.01 0.03 0.04 0.00 0.00 0.00 0.00 0.01 0.00 0.00 0.00 0.00 0.00 0.01 0.00 0.04 0.04 0.04 0.05 0.03 0.09 0.00 0.02 0.04 0.03 0.06 0.17 0.49 0.44 0.15 0.19 0.11 0.11 0.12 0.20 0.24 0.17 0.21 0.32 0.41 0.46 0.51
0.15 0.12 0.40 0.26 0.41 0.33 0.28 0.70 0.64 0.27 0.48 0.12 0.23 0.33 0.65 0.63 0.41 0.46 0.18 0.31 0.54 0.79 0.36 0.31 0.10 0.19 0.15 0.14 0.16 0.11 0.09 0.06 0.04 0.03 0.05 0.08 0.07 0.24 0.16 0.36 0.09 0.20 0.18 0.12 0.10 0.03 0.04 0.02 0.04 0.00 0.00 0.00 0.03 0.00 0.01 0.00 0.01 0.00 0.00 0.02 0.18 0.23 0.02 0.18 0.04 0.09 0.00 0.01 0.04 0.02 0.03 0.10 0.05 0.17 0.37 0.10 0.10 0.06 0.06 0.09 0.16 0.15 0.13 0.13 0.23 0.17 0.24 0.19
0.05 0.04 0.09 0.36 0.23 0.48 0.25 0.26 0.49 0.70 0.45 0.25 0.70 0.98 0.67 0.73 0.40 0.14 0.26 0.51 1.41 0.33 0.44 0.34 0.38 0.14 0.21 0.17 0.16 0.08 0.06 0.15 0.11 0.07 0.04 0.12 0.10 0.24 0.17 0.25 0.32 0.19 0.22 0.15 0.17 0.11 0.05 0.02 0.01 0.02 0.01 0.00 0.00 0.01 0.02 0.04 0.01 0.01 0.03 0.11 0.08 0.16 0.09 0.03 0.14 0.06 0.09 0.02 0.03 0.03 0.08 0.10 0.44 0.41 0.27 0.18 0.14 0.11 0.07 0.11 0.09 0.11 0.16 0.17 0.20 0.16 0.23 0.20
0.01 0.01 0.15 0.09 0.28 0.22 0.17 0.27 0.30 0.30 0.38 0.33 0.48 0.61 1.20 0.51 0.22 0.25 0.37 0.67 1.23 0.33 0.16 0.40 0.30 0.23 0.29 0.50 0.24 0.06 0.20 0.15 0.14 0.16 0.09 0.33 0.22 0.20 0.23 0.12 0.09 0.30 0.03 0.24 0.18 0.07 0.15 0.19 0.04 0.05 0.11 0.00 0.00 0.00 0.01 0.04 0.01 0.01 0.00 0.02 0.09 0.17 0.12 0.05 0.13 0.12 0.04 0.15 0.08 0.04 0.03 0.13 0.16 1.93 0.15 0.12 0.11 0.02 0.04 0.11 0.07 0.10 0.17 0.14 0.21 0.11 0.19 0.49
0.01 0.02 0.06 0.08 0.11 0.08 0.09 0.12 0.25 0.25 0.46 0.62 0.57 0.72 0.64 0.30 0.32 0.39 0.78 0.77 0.79 0.44 0.38 0.32 0.53 0.41 0.32 0.19 0.09 0.12 0.15 0.42 0.11 0.11 0.15 0.11 0.15 0.06 0.09 0.12 0.19 0.07 0.23 0.26 0.17 0.18 0.05 0.12 0.04 0.00 0.00 0.00 0.00 0.00 0.00 0.01 0.03 0.01 0.02 0.05 0.05 0.05 0.05 0.11 0.28 0.07 0.16 0.11 0.04 0.12 0.10 0.37 0.81 1.58 0.47 0.16 0.06 0.06 0.06 0.08 0.07 0.17 0.15 0.13 0.22 0.30 0.27 0.44
0.01 0.05 0.04 0.11 0.09 0.06 0.02 0.41 0.23 0.32 0.45 0.76 0.83 0.71 0.51 0.37 0.69 1.05 1.08 0.67 0.61 0.68 0.50 0.46 0.42 0.50 0.38 0.25 0.11 0.13 0.21 0.29 0.29 0.16 0.19 0.06 0.06 0.11 0.04 0.12 0.24 0.05 0.16 0.22 0.16 0.18 0.03 0.20 0.04 0.01 0.00 0.01 0.00 0.00 0.00 0.00 0.28 0.08 0.01 0.07 0.01 0.02 0.03 0.05 0.01 0.03 0.05 0.02 0.07 0.02 0.14 0.52 0.41 1.34 0.43 0.49 0.18 0.12 0.08 0.11 0.10 0.10 0.10 0.21 0.30 0.26 0.38 0.52
0.09 0.06 0.15 0.06 0.06 0.03 0.07 0.24 0.20 0.33 0.45 0.63 0.91 0.64 0.31 0.36 0.50 0.67 0.97 0.80 0.93 0.80 1.04 1.29 0.59 0.47 0.46 0.29 0.19 0.21 0.43 0.10 0.30 0.19 0.43 0.03 0.14 0.03 0.08 0.03 0.01 0.09 0.04 0.19 0.30 0.03 0.21 0.32 0.04 0.02 0.02 0.01 0.00 0.01 0.00 0.00 0.00 0.00 0.03 0.05 0.01 0.02 0.13 0.07 0.17 0.16 0.05 0.10 0.11 0.03 0.09 0.49 0.23 0.78 0.90 0.51 0.24 0.28 0.20 0.15 0.08 0.17 0.23 0.32 0.51 0.80 0.93 1.05
0.11 0.16 0.14 0.07 0.05 0.06 0.07 0.23 0.25 0.32 0.66 0.80 0.72 0.51 0.45 0.72 0.63 0.71 0.82 1.00 0.94 0.97 1.34 1.37 1.07 0.56 0.44 0.32 0.23 0.14 0.14 0.13 0.50 0.18 0.32 0.16 0.35 0.00 0.04 0.07 0.04 0.01 0.02 0.02 0.14 0.18 0.12 0.30 0.08 0.00 0.01 0.04 0.01 0.01 0.01 0.00 0.00 0.01 0.06 0.05 0.02 0.29 0.16 0.06 0.05 0.20 0.08 0.05 0.12 0.11 0.27 0.18 0.17 0.82 0.66 0.58 0.24 0.46 0.53 0.40 0.34 0.26 0.41 0.80 0.60 0.81 1.15 1.62
0.29 0.38 0.44 0.08 0.05 0.04 0.08 0.19 0.35 0.48 0.90 0.77 0.51 0.85 0.63 0.61 0.45 0.51 0.71 0.78 0.69 1.12 1.16 0.82 1.03 0.82 0.62 0.27 0.22 0.12 0.17 0.26 0.23 0.46 0.27 0.31 0.27 0.10 0.14 0.01 0.08 0.04 0.01 0.02 0.09 0.11 0.09 0.33 0.14 0.03 0.04 0.04 0.02 0.05 0.13 0.05 0.01 0.01 0.00 0.04 0.02 0.05 0.18 0.20 0.12 0.55 0.31 0.21 0.07 0.21 0.19 0.27 0.55 0.60 0.19 0.28 0.25 0.27 0.26 0.29 0.42 0.74 0.67 0.96 1.08 1.12 1.20 1.17
0.52 0.48 0.82 0.10 0.03 0.05 0.16 0.24 0.83 0.95 1.05 0.73 0.65 0.69 0.70 0.68 0.38 0.58 0.32 0.64 1.04 0.84 1.44 0.94 0.69 0.77 0.54 0.32 0.12 0.26 0.16 0.19 0.13 0.34 0.09 0.51 0.13 0.13 0.14 0.01 0.25 0.08 0.05 0.02 0.04 0.03 0.32 0.17 0.46 0.34 0.05 0.14 0.15 0.11 0.11 0.06 0.09 0.05 0.03 0.01 0.01 0.03 0.07 0.05 0.29 0.07 0.16 0.21 0.27 0.22 0.24 0.61 0.61 0.11 0.22 0.24 0.21 0.35 0.34 0.27 0.30 0.54 0.87 0.55 0.88 1.18 1.25 1.15
0.51 0.99 0.83 0.07 0.09 0.09 0.36 0.66 0.85 0.86 0.75 0.48 0.54 0.65 0.49 0.72 0.48 0.49 0.27 0.47 0.57 0.70 0.78 0.98 0.78 0.85 0.39 0.32 0.24 0.14 0.20 0.14 0.12 0.24 0.06 0.33 0.19 0.42 0.03 0.13 0.04 0.31 0.00 0.02 0.04 0.16 0.24 0.33 0.40 0.48 0.20 0.20 0.09 0.06 0.06 0.03 0.04 0.03 0.02 0.05 0.02 0.08 0.17 0.16 0.26 0.01 0.10 0.12 0.19 0.19 0.26 0.46 0.67 0.21 0.29 0.53 0.65 0.40 0.55 0.40 0.43 0.77 0.28 0.53 0.62 0.89 0.56 0.72
0.70 0.96 0.86 0.14 0.17 0.22 0.46 0.77 0.44 0.55 0.64 0.54 0.75 0.84 0.83 0.71 0.66 0.46 0.32 0.39 0.65 0.60 0.42 0.58 0.52 0.59 0.44 0.27 0.21 0.18 0.18 0.08 0.17 0.09 0.21 0.37 0.29 0.10 0.14 0.35 0.04 0.03 0.12 0.11 0.28 0.30 0.39 0.47 0.70 0.38 0.36 0.56 0.22 0.10 0.06 0.02 0.12 0.01 0.01 0.03 0.01 0.03 0.05 0.18 0.17 0.23 0.07 0.11 0.07 0.28 0.18 0.54 0.63 0.45 0.44 0.24 0.42 0.41 0.55 0.59 0.73 0.77 0.75 0.98 1.24 1.39 0.88 0.60
1.00 1.76 0.52 0.28 0.19 0.36 0.69 0.64 0.41 0.61 0.71 0.51 0.58 0.72 0.58 0.75 0.61 0.33 0.73 0.61 0.81 0.43 0.65 0.59 0.73 0.55 0.59 0.25 0.20 0.24 0.17 0.20 0.08 0.31 0.11 0.14 0.30 0.12 0.07 0.26 0.02 0.04 0.04 0.15 0.22 0.41 0.62 0.74 0.50 0.50 0.20 0.18 0.10 0.07 0.05 0.01 0.00 0.01 0.00 0.00 0.01 0.09 0.05 0.05 0.14 0.33 0.22 0.27 0.19 0.21 0.11 0.84 0.39 1.03 0.63 0.51 0.94 0.65 0.46 0.61 0.82 0.55 0.69 0.79 0.95 0.63 0.96 0.42
1.52 1.82 0.66 0.39 0.25 0.50 1.01 0.78 0.67 0.50 0.54 0.44 0.50 0.64 0.72 0.53 0.44 0.75 1.02 0.67 0.71 0.69 0.65 0.73 0.92 0.86 0.52 0.25 0.31 0.30 0.21 0.37 0.02 0.10 0.18 0.07 0.24 0.03 0.15 0.26 0.10 0.23 0.08 0.56 0.45 0.49 0.98 0.83 0.65 0.73 0.56 0.52 0.45 0.27 0.15 0.02 0.01 0.03 0.07 0.04 0.01 0.10 0.05 0.12 0.05 0.09 0.05 0.10 0.22 0.19 0.28 0.77 0.93 0.36 0.73 0.45 0.21 0.32 1.64 1.29 1.34 0.70 0.33 0.89 0.88 1.15 1.16 0.73
1.67 0.84 0.79 0.57 0.27 0.97 1.27 0.97 1.32 0.80 0.61 0.59 0.73 0.72 0.79 0.47 0.79 0.32 0.94 0.92 0.77 0.69 0.76 0.82 0.89 1.23 0.59 0.43 0.41 0.22 0.34 0.29 0.18 0.04 0.09 0.08 0.38 0.01 0.09 0.11 0.09 0.28 0.10 0.13 0.13 0.60 0.81 1.09 0.91 1.15 1.21 1.06 0.92 0.91 0.79 0.33 0.19 0.09 0.04 0.05 0.04 0.03 0.15 0.15 0.07 0.07 0.07 0.04 0.06 0.16 0.20 0.45 0.42 0.30 0.40 0.42 0.42 0.46 0.49 0.51 0.52 0.77 0.99 0.34 0.51 0.57 0.42 0.77
1.56 0.70 0.50 1.26 0.90 1.39 1.02 1.13 1.33 1.30 0.82 0.74 0.56 0.42 0.58 0.58 0.36 0.66 0.22 0.63 0.76 0.77 0.89 0.76 0.77 1.17 0.73 0.57 0.33 0.20 0.30 0.16 0.24 0.15 0.08 0.21 0.15 0.03 0.23 0.17 0.02 0.14 0.08 0.05 0.24 0.49 0.99 0.66 1.00 1.08 1.31 1.66 1.07 0.73 0.42 0.12 0.14 0.14 0.19 0.04 0.13 0.02 0.04 0.05 0.13 0.18 0.13 0.23 0.16 0.27 0.24 0.50 0.53 0.39 0.28 0.25 0.43 0.41 0.81 0.42 0.51 0.54 0.43 0.80 0.65 0.93 0.61 0.74
1.25 0.58 0.30 0.64 0.50 0.88 1.29 0.98 1.25 1.46 1.12 0.86 0.76 0.46 0.67 0.44 0.35 0.39 0.09 0.55 0.48 0.85 0.54 0.82 1.18 0.92 0.59 0.45 0.28 0.30 0.08 0.18 0.11 0.11 0.10 0.16 0.14 0.12 0.08 0.10 0.08 0.04 0.07 0.17 0.24 0.33 0.65 0.73 0.72 0.96 0.81 0.80 0.66 0.68 0.54 0.20 0.23 0.16 0.22 0.25 0.15 0.09 0.11 0.19 0.03 0.13 0.26 0.10 0.28 0.71 0.32 0.23 0.40 0.28 0.24 0.27 0.26 0.24 0.41 0.27 0.21 0.25 0.47 0.42 0.59 0.65 0.64 0.33
1.08 0.61 0.36 0.32 0.83 0.68 1.12 1.10 1.20 1.58 1.14 0.81 0.66 0.55 0.61 0.55 0.46 0.42 0.57 0.42 0.74 0.43 0.53 0.57 0.66 0.83 0.64 0.59 0.22 0.21 0.27 0.14 0.36 0.37 0.12 0.18 0.14 0.16 0.12 0.04 0.17 0.14 0.11 0.27 0.33 0.37 0.86 0.87 0.85 0.81 1.06 0.62 0.79 1.03 0.62 0.29 0.13 0.12 0.14 0.15 0.25 0.20 0.17 0.19 0.12 0.10 0.27 0.06 0.47 0.45 0.32 0.18 0.29 0.21 0.27 0.23 0.17 0.23 0.30 0.32 0.24 0.26 0.20 0.13 0.15 0.30 0.39 0.26
1.71 0.25 0.42 0.12 0.52 0.64 0.66 0.96 1.18 1.59 1.73 1.00 0.97 0.66 0.65 0.41 0.42 0.78 0.31 1.03 0.42 0.81 0.40 0.55 0.83 1.08 0.84 0.50 0.41 0.28 0.31 0.64 0.56 0.18 0.29 0.41 0.29 0.34 0.33 0.29 0.13 0.14 0.13 0.16 0.32 0.29 0.55 0.57 0.82 0.61 0.95 0.63 0.68 0.55 0.70 0.34 0.14 0.19 0.11 0.12 0.20 0.13 0.14 0.13 0.11 0.06 0.13 0.20 0.17 0.31 0.12 0.20 0.34 0.28 0.17 0.27 0.17 0.27 0.30 0.25 0.25 0.12 0.13 0.32 0.20 0.20 0.27 0.33
0.97 0.97 0.46 0.13 0.26 0.15 0.34 0.66 1.06 1.40 1.51 1.17 0.89 0.47 0.48 0.41 0.44 0.29 0.17 0.40 0.55 0.59 0.86 1.29 0.89 0.75 0.76 0.46 0.36 0.64 0.54 0.76 0.56 0.18 0.33 0.10 0.21 0.42 0.63 0.54 0.65 0.11 0.06 0.35 0.33 0.51 0.48 0.53 0.53 0.71 0.92 0.56 0.86 0.71 0.62 0.50 0.31 0.29 0.08 0.05 0.08 0.12 0.31 0.13 0.36 0.40 0.13 0.16 0.42 0.44 0.18 0.28 0.39 0.35 0.25 0.32 0.18 0.19 0.67 0.53 0.49 0.25 0.10 0.31 0.33 0.15 0.06 0.10
1.27 0.88 0.79 0.86 0.45 0.30 0.55 0.45 0.60 0.79 1.18 1.42 1.42 0.77 0.68 0.38 0.37 0.18 0.25 0.37 0.29 0.38 0.96 1.28 0.31 1.26 0.81 0.76 0.68 0.80 0.72 1.11 0.40 0.29 0.30 0.15 0.22 0.15 0.16 0.34 0.07 0.69 0.64 0.82 0.77 1.13 0.44 0.90 0.50 0.84 0.90 0.92 0.47 0.85 1.02 0.93 0.71 0.38 0.23 0.34 0.22 0.32 0.37 0.24 0.24 0.18 0.28 0.43 0.51 0.44 0.28 0.29 0.72 0.45 0.48 0.23 0.17 0.20 0.30 0.30 0.23 0.09 0.12 0.15 0.10 0.26 0.12 0.39
1.13 0.55 0.55 0.92 0.64 0.35 0.54 0.31 0.67 0.87 0.78 0.91 1.24 1.14 1.03 0.87 0.69 0.51 0.36 0.18 0.91 0.45 0.99 1.20 0.56 0.70 1.10 1.29 0.66 0.58 0.19 0.29 0.17 0.15 0.22 0.10 0.06 0.12 0.09 0.10 0.08 0.21 0.22 0.31 0.58 0.76 0.71 0.73 0.80 1.03 0.83 0.81 0.65 0.76 0.59 0.56 0.49 0.49 0.45 0.45 0.37 0.40 0.18 0.35 0.21 0.17 0.27 0.47 0.48 0.57 0.42 0.32 0.39 0.36 0.39 0.52 0.16 0.22 0.44 0.18 0.23 0.13 0.16 0.20 0.13 0.12 0.12 0.10